Find STARLINK-37916

NORAD ID: 799500995 Int'l Des: 2026-135V Constellation: starlink operational

現在のビュー

3D地球を読み込み中...

About STARLINK-37916

STARLINK-37916 (NORAD 799500995) is a starlink constellation satellite launched Jun 8, 2026

STARLINK-37916について

説明を読み込み中...

次回通過

Passes for default location (London). Set your location on the main map for personalized predictions.

高度履歴

Loading altitude history...

軌道要素

1 99999C 2026135V 26167.14215278 .00419320 00000-0 644190-4 0 1670
2 99999 97.2791 193.9535 0010779 262.6151 189.6342 16.03986959 14
Epoch: Jun 16, 2026 • Age: 4 hours